Index of /20260506/WXO-DD/model_gdps/15km/00/082
Name Last modified Size Description
Parent Directory -
20260506T00Z_MSC_GDPS_AirTemp_AGL-120m_LatLon0.15_PT082H.grib2 2026-05-06 03:59 902K
20260506T00Z_MSC_GDPS_AirTemp_AGL-2m_LatLon0.15_PT082H.grib2 2026-05-06 03:59 1.0M
20260506T00Z_MSC_GDPS_AirTemp_AGL-40m_LatLon0.15_PT082H.grib2 2026-05-06 03:59 802K
20260506T00Z_MSC_GDPS_AirTemp_AGL-80m_LatLon0.15_PT082H.grib2 2026-05-06 03:59 792K
20260506T00Z_MSC_GDPS_Albedo_Sfc_LatLon0.15_PT082H.grib2 2026-05-06 03:59 240K
20260506T00Z_MSC_GDPS_ConvectivePrecip-Accum_Sfc_LatLon0.15_PT082H.grib2 2026-05-06 03:59 3.2M
20260506T00Z_MSC_GDPS_DewPointDepression_AGL-2m_LatLon0.15_PT082H.grib2 2026-05-06 03:59 759K
20260506T00Z_MSC_GDPS_DewPoint_AGL-2m_LatLon0.15_PT082H.grib2 2026-05-06 03:59 608K
20260506T00Z_MSC_GDPS_DownwardLongwaveRadiationFlux-Accum_Sfc_LatLon0.15_PT082H.grib2 2026-05-06 03:59 694K
20260506T00Z_MSC_GDPS_DownwardShortwaveRadiationFlux-Accum_Sfc_LatLon0.15_PT082H.grib2 2026-05-06 03:59 903K
20260506T00Z_MSC_GDPS_FreezingRain-Accum1h_Sfc_LatLon0.15_PT082H.grib2 2026-05-06 03:59 56K
20260506T00Z_MSC_GDPS_FreezingRain-Accum_Sfc_LatLon0.15_PT082H.grib2 2026-05-06 03:59 320K
20260506T00Z_MSC_GDPS_IcePellets-Accum1h_Sfc_LatLon0.15_PT082H.grib2 2026-05-06 03:59 17K
20260506T00Z_MSC_GDPS_IcePellets-Accum_Sfc_LatLon0.15_PT082H.grib2 2026-05-06 03:59 93K
20260506T00Z_MSC_GDPS_LatentHeatNetFlux_Sfc_LatLon0.15_PT082H.grib2 2026-05-06 03:59 742K
20260506T00Z_MSC_GDPS_NetLongwaveRadiationFlux-Accum_Sfc_LatLon0.15_PT082H.grib2 2026-05-06 03:59 924K
20260506T00Z_MSC_GDPS_NetShortwaveRadiationFlux-Accum_Sfc_LatLon0.15_PT082H.grib2 2026-05-06 03:59 884K
20260506T00Z_MSC_GDPS_O3MixingRatio_Sfc_LatLon0.15_PT082H.grib2 2026-05-06 04:43 2.2M
20260506T00Z_MSC_GDPS_O3_EAtm_LatLon0.15_PT082H.grib2 2026-05-06 04:43 2.4M
20260506T00Z_MSC_GDPS_PlanetaryBoundaryLayerHeight_Sfc_LatLon0.15_PT082H.grib2 2026-05-06 03:59 2.5M
20260506T00Z_MSC_GDPS_Precip-Accum1h_Sfc_LatLon0.15_PT082H.grib2 2026-05-06 03:59 3.3M
20260506T00Z_MSC_GDPS_Precip-Accum_Sfc_LatLon0.15_PT082H.grib2 2026-05-06 03:59 5.0M
20260506T00Z_MSC_GDPS_PrecipRate_Sfc_LatLon0.15_PT082H.grib2 2026-05-06 03:59 3.1M
20260506T00Z_MSC_GDPS_Pressure_MSL_LatLon0.15_PT082H.grib2 2026-05-06 03:59 826K
20260506T00Z_MSC_GDPS_Pressure_Sfc_LatLon0.15_PT082H.grib2 2026-05-06 03:59 1.1M
20260506T00Z_MSC_GDPS_RadiativeTemp_Sfc_LatLon0.15_PT082H.grib2 2026-05-06 03:59 498K
20260506T00Z_MSC_GDPS_Rain-Accum1h_Sfc_LatLon0.15_PT082H.grib2 2026-05-06 03:59 1.7M
20260506T00Z_MSC_GDPS_Rain-Accum_Sfc_LatLon0.15_PT082H.grib2 2026-05-06 03:59 3.8M
20260506T00Z_MSC_GDPS_RelativeHumidity_AGL-2m_LatLon0.15_PT082H.grib2 2026-05-06 03:59 1.0M
20260506T00Z_MSC_GDPS_Runoff-Accum_Sfc_LatLon0.15_PT082H.grib2 2026-05-06 03:59 119K
20260506T00Z_MSC_GDPS_SensibleHeatNetFlux_Sfc_LatLon0.15_PT082H.grib2 2026-05-06 03:59 498K
20260506T00Z_MSC_GDPS_Snow-Accum1h_Sfc_LatLon0.15_PT082H.grib2 2026-05-06 03:59 1.1M
20260506T00Z_MSC_GDPS_Snow-Accum_Sfc_LatLon0.15_PT082H.grib2 2026-05-06 03:59 2.0M
20260506T00Z_MSC_GDPS_SnowDepth_Sfc_LatLon0.15_PT082H.grib2 2026-05-06 03:59 1.7M
20260506T00Z_MSC_GDPS_SoilTemp_DBS-0to10cm_LatLon0.15_PT082H.grib2 2026-05-06 03:59 511K
20260506T00Z_MSC_GDPS_SoilTemp_Sfc_LatLon0.15_PT082H.grib2 2026-05-06 03:59 592K
20260506T00Z_MSC_GDPS_SoilVolumetricWaterContent_DBS-0to10cm_LatLon0.15_PT082H.grib2 2026-05-06 03:59 599K
20260506T00Z_MSC_GDPS_SoilVolumetricWaterContent_DBS-0to1cm_LatLon0.15_PT082H.grib2 2026-05-06 03:59 654K
20260506T00Z_MSC_GDPS_SpecificHumidity_AGL-120m_LatLon0.15_PT082H.grib2 2026-05-06 03:59 1.1M
20260506T00Z_MSC_GDPS_SpecificHumidity_AGL-2m_LatLon0.15_PT082H.grib2 2026-05-06 03:59 1.2M
20260506T00Z_MSC_GDPS_SpecificHumidity_AGL-40m_LatLon0.15_PT082H.grib2 2026-05-06 03:59 1.1M
20260506T00Z_MSC_GDPS_SpecificHumidity_AGL-80m_LatLon0.15_PT082H.grib2 2026-05-06 03:59 1.1M
20260506T00Z_MSC_GDPS_SpecificHumidity_Sfc_LatLon0.15_PT082H.grib2 2026-05-06 03:59 685K
20260506T00Z_MSC_GDPS_TotalCloudCover_Sfc_LatLon0.15_PT082H.grib2 2026-05-06 03:59 823K
20260506T00Z_MSC_GDPS_UVIndex-ClearSky_Sfc_LatLon0.15_PT082H.grib2 2026-05-06 04:43 1.1M
20260506T00Z_MSC_GDPS_UVIndex_Sfc_LatLon0.15_PT082H.grib2 2026-05-06 04:43 1.5M
20260506T00Z_MSC_GDPS_UpwardLongwaveRadiationFlux_NTAtm_LatLon0.15_PT082H.grib2 2026-05-06 03:59 841K
20260506T00Z_MSC_GDPS_WindDir_AGL-10m_LatLon0.15_PT082H.grib2 2026-05-06 03:59 1.3M
20260506T00Z_MSC_GDPS_WindDir_AGL-120m_LatLon0.15_PT082H.grib2 2026-05-06 03:59 1.3M
20260506T00Z_MSC_GDPS_WindDir_AGL-40m_LatLon0.15_PT082H.grib2 2026-05-06 03:59 1.3M
20260506T00Z_MSC_GDPS_WindDir_AGL-80m_LatLon0.15_PT082H.grib2 2026-05-06 03:59 1.3M
20260506T00Z_MSC_GDPS_WindDir_IsbL-0700_LatLon0.15_PT082H.grib2 2026-05-06 03:59 1.6M
20260506T00Z_MSC_GDPS_WindGust-Max_AGL-10m_LatLon0.15_PT082H.grib2 2026-05-06 03:59 2.2M
20260506T00Z_MSC_GDPS_WindGust-Min_AGL-10m_LatLon0.15_PT082H.grib2 2026-05-06 03:59 2.1M
20260506T00Z_MSC_GDPS_WindGust_AGL-10m_LatLon0.15_PT082H.grib2 2026-05-06 03:59 2.1M
20260506T00Z_MSC_GDPS_WindSpeed_AGL-10m_LatLon0.15_PT082H.grib2 2026-05-06 03:59 1.1M
20260506T00Z_MSC_GDPS_WindSpeed_AGL-120m_LatLon0.15_PT082H.grib2 2026-05-06 03:59 1.2M
20260506T00Z_MSC_GDPS_WindSpeed_AGL-40m_LatLon0.15_PT082H.grib2 2026-05-06 03:59 1.2M
20260506T00Z_MSC_GDPS_WindSpeed_AGL-80m_LatLon0.15_PT082H.grib2 2026-05-06 03:59 1.2M
20260506T00Z_MSC_GDPS_WindSpeed_IsbL-0700_LatLon0.15_PT082H.grib2 2026-05-06 03:59 1.5M
20260506T00Z_MSC_GDPS_WindU_AGL-10m_LatLon0.15_PT082H.grib2 2026-05-06 03:59 1.3M
20260506T00Z_MSC_GDPS_WindU_AGL-120m_LatLon0.15_PT082H.grib2 2026-05-06 03:59 1.0M
20260506T00Z_MSC_GDPS_WindU_AGL-40m_LatLon0.15_PT082H.grib2 2026-05-06 03:59 958K
20260506T00Z_MSC_GDPS_WindU_AGL-80m_LatLon0.15_PT082H.grib2 2026-05-06 03:59 962K
20260506T00Z_MSC_GDPS_WindU_IsbL-0700_LatLon0.15_PT082H.grib2 2026-05-06 03:59 1.2M
20260506T00Z_MSC_GDPS_WindV_AGL-10m_LatLon0.15_PT082H.grib2 2026-05-06 03:59 1.3M
20260506T00Z_MSC_GDPS_WindV_AGL-120m_LatLon0.15_PT082H.grib2 2026-05-06 03:59 1.0M
20260506T00Z_MSC_GDPS_WindV_AGL-40m_LatLon0.15_PT082H.grib2 2026-05-06 03:59 959K
20260506T00Z_MSC_GDPS_WindV_AGL-80m_LatLon0.15_PT082H.grib2 2026-05-06 03:59 1.0M
20260506T00Z_MSC_GDPS_WindV_IsbL-0700_LatLon0.15_PT082H.grib2 2026-05-06 03:59 1.2M